Torna al catalogo

STARLINK-36259

AttivoComunicazioniVLEO
NORAD 67106·PAYLOAD·🇺🇸 United States

Lanciato Dec 15, 2025 da Cape Canaveral Space Force Station

Loading…

Prossimi Passaggi (prossime 24 ore)

TLE

AggiornatoSource: CelesTrak SupGP

Epoca: Sep 14, 2026, 23:08 UTC

1 67106C 25299E   26257.96437500 -.00041232  00000+0 -14934-2 0  2576
2 67106  42.9993 179.7557 0001121 267.0104 213.4312 15.27598961    14

Traccia STARLINK-36259 in tempo reale con AllMySat

Download on the App Store